EW0322 Weather Reports


Display with metric or nautical units.
time (UTC)temp
F
wind
direction
speed
MPH
gust
MPH
rain 1hr
in
rain 24hr
in
rain mn
in
humidity
%
barometer
mb
20260510150124 81 288 2.0 11.0 0.00 0.00 0.00 15 1005.4
20260510144553 81 257 1.0 9.0 0.00 0.00 0.00 15 1005.4
20260510143048 80 166 0.0 2.0 0.00 0.00 0.00 17 1005.4
20260510141544 79 166 0.0 1.0 0.00 0.00 0.00 18 1005.3
20260510140039 77 194 0.0 0.0 0.00 0.00 0.00 18 1004.8
20260510134536 75 194 0.0 1.0 0.00 0.00 0.00 19 1004.5
20260510133030 72 194 0.0 0.0 0.00 0.00 0.00 20 1004.2
20260510131527 70 194 0.0 0.0 0.00 0.00 0.00 21 1004.0
20260510130025 70 194 0.0 0.0 0.00 0.00 0.00 21 1003.9
20260510124528 68 217 0.0 0.0 0.00 0.00 0.00 21 1003.7
20260510123019 67 217 0.0 0.0 0.00 0.00 0.00 20 1003.5
20260510121515 67 217 0.0 0.0 0.00 0.00 0.00 20 1003.4
20260510120021 67 213 0.0 0.0 0.00 0.00 0.00 20 1003.0
20260510114516 68 213 0.0 0.0 0.00 0.00 0.00 20 1002.7
20260510113008 68 213 0.0 1.0 0.00 0.00 0.00 19 1002.6
20260510111507 70 215 0.0 3.0 0.00 0.00 0.00 19 1002.4
20260510110005 69 213 0.0 0.0 0.00 0.00 0.00 21 1002.2
20260510104503 69 213 0.0 1.0 0.00 0.00 0.00 21 1002.1
20260510103001 69 213 0.0 0.0 0.00 0.00 0.00 20 1002.0
20260510101600 70 213 0.0 0.0 0.00 0.00 0.00 19 1002.0
20260510100057 70 213 0.0 0.0 0.00 0.00 0.00 19 1002.0
20260510094610 70 213 0.0 0.0 0.00 0.00 0.00 19 1001.9
20260510093111 70 213 0.0 0.0 0.00 0.00 0.00 19 1001.7
20260510091554 71 213 0.0 0.0 0.00 0.00 0.00 18 1001.6
20260510090054 71 213 0.0 0.0 0.00 0.00 0.00 18 1001.7
20260510084551 71 213 0.0 0.0 0.00 0.00 0.00 19 1001.8
20260510083100 72 213 0.0 1.0 0.00 0.00 0.00 18 1001.5
20260510081544 74 213 0.0 2.0 0.00 0.00 0.00 17 1001.7
20260510080045 75 213 0.0 0.0 0.00 0.00 0.00 15 1001.7
20260510074547 77 213 0.0 0.0 0.00 0.00 0.00 14 1001.8
20260510073051 78 213 0.0 1.0 0.00 0.00 0.00 13 1001.8
20260510071540 77 213 0.0 2.0 0.00 0.00 0.00 14 1001.9
20260510070039 75 213 0.0 0.0 0.00 0.00 0.00 15 1001.9
20260510064537 75 213 0.0 0.0 0.00 0.00 0.00 15 1001.9
20260510063034 75 213 0.0 0.0 0.00 0.00 0.00 15 1001.9
20260510061534 76 213 0.0 0.0 0.00 0.00 0.00 15 1001.9
20260510060039 76 213 0.0 0.0 0.00 0.00 0.00 15 1001.9
20260510054536 77 213 0.0 0.0 0.00 0.00 0.00 15 1001.9
20260510053028 77 213 0.0 0.0 0.00 0.00 0.00 15 1001.9
20260510051528 77 213 0.0 0.0 0.00 0.00 0.00 15 1001.9
20260510050027 78 213 0.0 0.0 0.00 0.00 0.00 14 1001.8
20260510044527 79 213 0.0 0.0 0.00 0.00 0.00 14 1001.8
20260510043028 81 213 0.0 0.0 0.00 0.00 0.00 13 1001.8
20260510041525 82 213 0.0 1.0 0.00 0.00 0.00 12 1001.7
20260510040026 83 213 0.0 0.0 0.00 0.00 0.00 12 1001.6
20260510034525 83 213 0.0 2.0 0.00 0.00 0.00 12 1001.6
20260510033024 83 213 0.0 3.0 0.00 0.00 0.00 12 1001.4
20260510031524 84 213 0.0 3.0 0.00 0.00 0.00 12 1001.3
20260510030024 84 213 0.0 0.0 0.00 0.00 0.00 12 1001.1
20260510024523 85 213 0.0 0.0 0.00 0.00 0.00 11 1000.8
20260510023023 86 213 0.0 0.0 0.00 0.00 0.00 11 1000.6
20260510021526 87 213 0.0 2.0 0.00 0.00 0.00 11 1000.3
20260510020022 88 213 0.0 2.0 0.00 0.00 0.00 10 1000.2
20260510014524 89 236 0.0 4.0 0.00 0.00 0.00 9 1000.1
20260510013021 89 234 0.0 3.0 0.00 0.00 0.00 9 1000.0
20260510011520 90 234 0.0 3.0 0.00 0.00 0.00 8 1000.0
20260510010019 90 234 0.0 4.0 0.00 0.00 0.00 9 1000.0
20260510004519 91 232 0.0 5.0 0.00 0.00 0.00 8 1000.0
20260510003033 92 231 2.0 5.0 0.00 0.00 0.00 8 1000.1
20260510001522 92 230 3.0 8.0 0.00 0.00 0.00 8 1000.1
20260510000015 93 236 1.0 7.0 0.00 0.00 0.00 7 1000.2
20260509234524 94 236 1.0 5.0 0.00 0.00 0.00 7 1000.4
20260509233012 92 229 3.0 8.0 0.00 0.00 0.00 8 1000.4
20260509231514 93 215 3.0 7.0 0.00 0.00 0.00 8 1000.4
20260509230010 92 211 1.0 8.0 0.00 0.00 0.00 8 1000.5
20260509224508 94 233 3.0 9.0 0.00 0.00 0.00 9 1000.8
20260509223007 92 219 2.0 10.0 0.00 0.00 0.00 9 1000.8
20260509221505 92 219 2.0 7.0 0.00 0.00 0.00 9 1001.2
20260509220006 91 222 0.0 6.0 0.00 0.00 0.00 9 1001.3
20260509214501 92 226 4.0 8.0 0.00 0.00 0.00 10 1001.5
20260509213134 92 233 2.0 9.0 0.00 0.00 0.00 10 1001.7
20260509211556 92 218 5.0 9.0 0.00 0.00 0.00 9 1002.1
20260509210105 91 232 0.0 8.0 0.00 0.00 0.00 9 1002.3
20260509204552 92 233 3.0 8.0 0.00 0.00 0.00 8 1002.8
20260509203048 92 206 1.0 9.0 0.00 0.00 0.00 11 1002.9
20260509201546 91 208 3.0 9.0 0.00 0.00 0.00 10 1003.2
20260509200044 90 219 3.0 8.0 0.00 0.00 0.00 11 1003.5
20260509194543 90 214 5.0 8.0 0.00 0.00 0.00 11 1003.7
20260509193043 88 226 3.0 9.0 0.00 0.00 0.00 13 1003.9
20260509191541 89 234 3.0 8.0 0.00 0.00 0.00 12 1004.1
20260509190038 88 223 3.0 8.0 0.00 0.00 0.00 13 1004.2
20260509184543 86 202 4.0 8.0 0.00 0.00 0.00 13 1004.3
20260509183033 85 207 3.0 10.0 0.00 0.00 0.00 13 1004.6
20260509181528 84 236 1.0 8.0 0.00 0.00 0.00 14 1004.8
20260509180024 84 225 1.0 6.0 0.00 0.00 0.00 15 1005.0
20260509174521 82 223 1.0 9.0 0.00 0.00 0.00 18 1005.2
20260509173020 81 219 3.0 7.0 0.00 0.00 0.00 17 1005.3
20260509171514 81 214 2.0 7.0 0.00 0.00 0.00 18 1005.3
20260509170013 79 206 2.0 8.0 0.00 0.00 0.00 19 1005.3
20260509164505 78 210 3.0 7.0 0.00 0.00 0.00 19 1005.4
20260509163003 76 226 3.0 10.0 0.00 0.00 0.00 20 1005.4
20260509161603 76 249 1.0 9.0 0.00 0.00 0.00 21 1005.4
20260509160055 74 256 2.0 6.0 0.00 0.00 0.00 22 1005.5
20260509154549 73 196 0.0 6.0 0.00 0.00 0.00 23 1005.7
20260509153059 72 196 2.0 5.0 0.00 0.00 0.00 23 1005.7
20260509151545 71 195 2.0 5.0 0.00 0.00 0.00 24 1005.6